Weather History for McGuire AFB, NJ

Change the Weather History Date:

Saturday, December 10, 2011

  Actual Average Record
Temperature  
Mean Temperature 36 °F -  
Max Temperature 45 °F 46 °F 66 °F (2008)
Min Temperature 26 °F 29 °F 14 °F (2002)
Degree Days  
Heating Degree Days 28    
Moisture  
Dew Point 26 °F    
Average Humidity 62    
Maximum Humidity 76    
Minimum Humidity 45    
Precipitation  
Precipitation 0.00 in - - ()
Sea Level Pressure  
Sea Level Pressure 30.31 in    
Wind  
Wind Speed 6 mph (NW)    
Max Wind Speed 14 mph    
Max Gust Speed -    
Visibility 10 miles    
Events      
Averages and records for this station are not official NWS values.
T = Trace of Precipitation, MM = Missing Value Source: NWS Daily Summary

Daily Weather History Graph

Daily Weather History Graph

Search for Another Location

Airport:

Trip Planner

Search our weather history database for the weather conditions in past years. The results will help you decide how hot, cold, wet, or windy it might be!

Date:

Astronomy

Dec. 10, 2011 Rise Set
Actual Time 7:09 AM EST 4:32 PM EST
Civil Twilight 6:38 AM EST 5:03 PM EST
Nautical Twilight 6:04 AM EST 5:37 PM EST
Astronomical Twilight 5:31 AM EST 6:10 PM EST
Moon 4:44 PM EST (12/10) 7:06 AM EST (12/10)
Length of Visible Light 10h 24m
Length of Day
9h 23m
Full, 100% of the Moon is Illuminated
Dec 10
Full
Dec 17
Last Quarter
Dec 24
New
Jan 1
First Quarter
Jan 9
Full

Hourly Weather History & Observations

Time (EST) Temp. Windchill Dew Point Humidity Pressure Visibility Wind Dir Wind Speed Gust Speed Precip Events Conditions
12:55 AM 45.3 °F 43.0 °F 38.1 °F 76% 30.19 in 10.0 mi NW 4.6 mph - N/A   Overcast
1:55 AM 43.5 °F 41.9 °F 34.3 °F 70% 30.19 in 10.0 mi NW 3.5 mph - N/A   Mostly Cloudy
2:55 AM 42.4 °F 39.6 °F 33.4 °F 70% 30.20 in 10.0 mi WNW 4.6 mph - N/A   Mostly Cloudy
3:55 AM 40.8 °F 38.8 °F 32.0 °F 71% 30.19 in 10.0 mi WNW 3.5 mph - N/A   Scattered Clouds
4:55 AM 40.5 °F 37.3 °F 30.7 °F 68% 30.19 in 10.0 mi NW 4.6 mph - N/A   Overcast
5:55 AM 40.3 °F 36.3 °F 29.5 °F 65% 30.22 in 10.0 mi NW 5.8 mph - N/A   Mostly Cloudy
6:55 AM 39.7 °F 35.6 °F 29.1 °F 66% 30.24 in 10.0 mi WNW 5.8 mph - N/A   Mostly Cloudy
7:55 AM 38.3 °F 34.8 °F 28.6 °F 68% 30.27 in 10.0 mi WNW 4.6 mph - N/A   Overcast
8:55 AM 40.1 °F 35.3 °F 29.1 °F 65% 30.29 in 10.0 mi WNW 6.9 mph - N/A   Clear
9:55 AM 42.4 °F 36.1 °F 29.7 °F 61% 30.31 in 10.0 mi NNW 11.5 mph - N/A   Clear
10:55 AM 44.6 °F 38.1 °F 30.0 °F 57% 30.30 in 10.0 mi NNW 13.8 mph - N/A   Partly Cloudy
11:55 AM 43.7 °F 38.1 °F 28.2 °F 54% 30.29 in 10.0 mi NW 10.4 mph - N/A   Mostly Cloudy
12:55 PM 42.4 °F 36.5 °F 27.5 °F 56% 30.29 in 10.0 mi NNW 10.4 mph - N/A   Scattered Clouds
1:55 PM 44.4 °F 39.0 °F 24.1 °F 45% 30.27 in 10.0 mi NNW 10.4 mph - N/A   Scattered Clouds
2:55 PM 42.8 °F 37.5 °F 24.6 °F 49% 30.29 in 10.0 mi NW 9.2 mph - N/A   Clear
3:55 PM 40.8 °F 34.5 °F 23.2 °F 50% 30.30 in 10.0 mi NNW 10.4 mph - N/A   Clear
4:55 PM 36.5 °F 29.2 °F 21.6 °F 55% 30.33 in 10.0 mi NNW 10.4 mph - N/A   Clear
5:55 PM 34.3 °F 30.2 °F 21.6 °F 60% 30.37 in 10.0 mi North 4.6 mph - N/A   Clear
6:55 PM 31.3 °F 26.6 °F 19.9 °F 63% 30.40 in 10.0 mi North 4.6 mph - N/A   Clear
7:55 PM 30.0 °F 25.2 °F 18.7 °F 63% 30.44 in 10.0 mi NNW 4.6 mph - N/A   Clear
8:55 PM 28.4 °F 21.2 °F 18.5 °F 66% 30.46 in 10.0 mi NNW 6.9 mph - N/A   Clear
9:55 PM 29.7 °F 26.1 °F 16.7 °F 59% 30.47 in 10.0 mi NNW 3.5 mph - N/A   Clear
10:55 PM 28.4 °F - 16.9 °F 62% 30.49 in 10.0 mi Calm Calm - N/A   Clear
11:55 PM 26.8 °F - 16.7 °F 66% 30.51 in 10.0 mi Calm Calm - N/A   Clear